Simultaneous Nadir Overpasses (SNOs) Predictions

Prediction of SNOs between FY3D and METOP-C Satellite Orbit:

Table of predicted SNOs for the next 14.0 days since TLE Epoch: 10/17/2020
Index Date (FY3D) Time (FY3D) Lat,Lon (FY3D) SZA (FY3D ) Date (METOP-C) Time (METOP-C) Lat,Lon (METOP-C) SZA (METOP-C ) Distance(km) Time Diff (sec)
1 10/18/2020 00:12:29 73.78, 168.12 83.46 10/18/2020 00:13:35 73.72, 170.94 83.35 87.94 66
2 10/18/2020 01:03:11 -73.70, -24.39 96.61 10/18/2020 01:04:19 -73.66, -21.89 96.70 78.28 68
3 10/18/2020 01:53:52 73.48, 143.45 83.17 10/18/2020 01:55:02 73.45, 144.98 83.11 48.37 70
4 10/18/2020 02:44:35 -73.45, -49.17 96.85 10/18/2020 02:45:46 -73.39, -47.84 96.94 42.98 71
5 10/18/2020 03:35:16 73.23, 118.65 82.93 10/18/2020 03:36:29 73.18, 119.04 82.88 13.28 73
6 10/18/2020 04:25:59 -73.20, -73.98 97.08 10/18/2020 04:27:12 -73.17, -73.66 97.12 10.73 73
7 10/18/2020 05:16:43 73.12, 93.50 82.85 10/18/2020 05:17:52 73.12, 93.55 82.84 1.67 69
8 10/18/2020 06:07:26 -73.10, -99.13 97.16 10/18/2020 06:08:35 -73.11, -99.15 97.16 0.91 69
9 10/18/2020 06:58:12 73.12, 68.14 82.88 10/18/2020 06:59:14 73.10, 68.17 82.85 2.95 62
10 10/18/2020 07:48:55 -73.10,-124.49 97.14 10/18/2020 07:49:57 -73.09,-124.53 97.16 1.80 62
11 10/18/2020 08:39:40 73.07, 42.88 82.85 10/18/2020 08:40:36 73.08, 42.79 82.85 3.11 56
12 10/18/2020 09:30:24 -73.10,-149.86 97.12 10/18/2020 09:31:18 -73.12,-149.80 97.10 3.11 54
13 10/18/2020 10:21:09 73.07, 17.51 82.87 10/18/2020 10:21:58 73.06, 17.41 82.86 3.45 49
14 10/18/2020 11:11:53 -73.10,-175.23 97.09 10/18/2020 11:12:40 -73.10,-175.18 97.09 1.68 47
15 10/18/2020 12:02:38 73.07, -7.85 82.89 10/18/2020 12:03:19 73.09, -7.86 82.92 2.93 41
16 10/18/2020 12:53:22 -73.10, 159.41 97.07 10/18/2020 12:54:02 -73.08, 159.44 97.08 1.66 40
17 10/18/2020 13:44:07 73.07, -33.22 82.92 10/18/2020 13:44:41 73.08, -33.24 82.93 1.23 34
18 10/18/2020 14:34:51 -73.09, 134.04 97.05 10/18/2020 14:35:24 -73.07, 134.06 97.08 3.09 33
19 10/18/2020 15:25:36 73.06, -58.59 82.94 10/18/2020 15:26:03 73.06, -58.62 82.93 1.21 27
20 10/18/2020 16:16:19 -73.04, 108.78 97.07 10/18/2020 16:16:46 -73.05, 108.68 97.07 3.24 27
21 10/18/2020 17:07:05 73.06, -83.96 82.97 10/18/2020 17:07:25 73.04, -84.00 82.94 2.91 20
22 10/18/2020 17:57:49 -73.09, 83.31 97.00 10/18/2020 17:58:07 -73.08, 83.41 97.01 3.66 18
23 10/18/2020 18:48:34 73.06,-109.32 82.99 10/18/2020 18:48:46 73.07,-109.27 83.00 2.17 12
24 10/18/2020 19:39:17 -73.04, 58.05 97.03 10/18/2020 19:39:29 -73.06, 58.04 97.00 2.78 12
25 10/18/2020 20:30:03 73.06,-134.69 83.01 10/18/2020 20:30:08 73.05,-134.65 83.01 1.57 5
26 10/18/2020 21:20:46 -73.04, 32.68 97.00 10/18/2020 21:20:51 -73.04, 32.66 97.00 1.23 5
27 10/18/2020 22:11:32 73.06,-160.06 83.04 10/18/2020 22:11:30 73.04,-160.02 83.01 2.69 2
28 10/18/2020 23:02:15 -73.03, 7.31 96.98 10/18/2020 23:02:13 -73.03, 7.28 96.99 1.45 2
29 10/18/2020 23:53:00 73.01, 174.69 83.01 10/18/2020 23:52:52 73.02, 174.60 83.02 3.15 8
30 10/19/2020 00:43:44 -73.03, -18.05 96.96 10/19/2020 00:43:35 -73.01, -18.10 96.98 3.09 9
31 10/19/2020 01:34:29 73.00, 149.32 83.03 10/19/2020 01:34:14 73.00, 149.22 83.03 3.29 15
32 10/19/2020 02:25:13 -73.03, -43.42 96.93 10/19/2020 02:24:56 -73.04, -43.37 96.92 1.93 17
33 10/19/2020 03:15:58 73.00, 123.95 83.06 10/19/2020 03:15:35 73.03, 123.95 83.09 3.23 23
34 10/19/2020 04:06:42 -73.03, -68.79 96.91 10/19/2020 04:06:18 -73.02, -68.75 96.92 1.38 24
35 10/19/2020 04:57:27 73.00, 98.58 83.08 10/19/2020 04:56:57 73.01, 98.57 83.09 1.47 30
36 10/19/2020 05:48:11 -73.03, -94.15 96.89 10/19/2020 05:47:40 -73.00, -94.13 96.91 2.64 31
37 10/19/2020 06:38:56 73.00, 73.22 83.10 10/19/2020 06:38:19 73.00, 73.19 83.10 0.96 37
38 10/19/2020 07:29:39 -72.98,-119.41 96.91 10/19/2020 07:29:02 -72.99,-119.51 96.90 3.33 37
39 10/19/2020 08:20:25 73.00, 47.85 83.13 10/19/2020 08:19:41 72.98, 47.81 83.11 2.60 44
40 10/19/2020 09:11:08 -72.97,-144.78 96.89 10/19/2020 09:10:24 -72.97,-144.89 96.89 3.51 44
41 10/19/2020 10:01:54 73.00, 22.48 83.15 10/19/2020 10:01:02 73.01, 22.54 83.17 2.43 52
42 10/19/2020 10:52:37 -72.97,-170.15 96.87 10/19/2020 10:51:45 -73.00,-170.16 96.84 3.25 52
43 10/19/2020 11:43:23 73.00, -2.88 83.17 10/19/2020 11:42:24 72.99, -2.84 83.17 1.59 59
44 10/19/2020 12:34:06 -72.97, 164.49 96.84 10/19/2020 12:33:07 -72.98, 164.47 96.83 1.58 59
45 10/19/2020 13:24:52 72.99, -28.25 83.20 10/19/2020 13:23:46 72.97, -28.22 83.18 2.49 66
46 10/19/2020 14:15:35 -72.97, 139.12 96.82 10/19/2020 14:14:29 -72.97, 139.09 96.82 1.16 66
47 10/19/2020 15:06:20 72.94, -53.51 83.17 10/19/2020 15:05:08 72.96, -53.59 83.19 3.14 72
48 10/19/2020 15:57:04 -72.97, 113.75 96.80 10/19/2020 15:55:51 -72.95, 113.71 96.81 2.66 73
49 10/19/2020 16:47:46 72.79, -78.56 83.04 10/19/2020 16:46:33 72.79, -79.29 83.05 24.23 73
50 10/19/2020 17:38:29 -72.76, 88.81 96.98 10/19/2020 17:37:16 -72.78, 88.01 96.95 26.44 73
51 10/19/2020 18:29:09 72.48,-103.30 82.75 10/19/2020 18:28:00 72.51,-105.19 82.81 63.45 69
52 10/19/2020 19:19:53 -72.51, 63.97 97.22 10/19/2020 19:18:43 -72.51, 62.12 97.19 61.85 70
53 10/19/2020 20:10:33 72.23,-128.16 82.51 10/19/2020 20:09:27 72.24,-131.07 82.58 98.98 66
